Flag for China Weather past 2 weeks in Xiamen, Fujian, China

Now
90 °F

Passing clouds.


Feels Like: 98 °F
Forecast: 82 / 95 °F
Wind: 6 mph from West

Location: Xiamen Airport

Current Time: Aug 2, 2014 at 9:24:58 AM

Latest Report: Aug 2, 2014 at 9:00 AM


Visibility: N/A

Pressure: 29.53 "Hg

Humidity: 59%

Dew point: 73 °F

Location of XiamenLocation

Historic Weather in Xiamen — Graph

°F

Xiamen temperature yesterday

Maximum temperature yesterday: 102 °F (at 3:00 PM)
Minimum temperature yesterday: 82 °F (at 12:00 AM)
Average temperature yesterday: 90 °F

Past Weeks' High & Low Weather Summary

 TemperatureHumidityPressure
High102 °F (Aug 1, 3:00 PM)100% (Jul 23, 1:00 PM)29.89 "Hg (Jul 23, 1:00 PM)
Low77 °F (Jul 24, 12:00 PM)35% (Aug 1, 3:00 PM)29.24 "Hg (Jul 23, 2:00 PM)
Average86 °F75%29.66 "Hg
* Reported Jul 18 8:00 AM — Aug 2 8:00 AM, Xiamen, Weather by CustomWeather, © 2014

Note: Actual official high and low records may vary slightly from our data, if they occured in-between our weather recording intervals... More about our weather records

Advertising

Xiamen weather history for previous 24 hours

 ConditionsComfort  
Time TempWeatherWind HumidityBarometerVisibility
8:00 AM
Aug 2
88 °FPassing clouds.3 mph62%29.53 "HgN/A
7:00 AM84 °FSunny.3 mph70%29.50 "Hg10 mi
6:00 AM82 °FPassing clouds.3 mph74%29.50 "HgN/A
5:00 AM82 °FClear.1 mph74%29.47 "Hg10 mi
4:00 AM84 °FClear.3 mph70%29.47 "Hg10 mi
3:00 AM84 °FClear.3 mph70%29.47 "Hg10 mi
2:00 AM86 °FClear.3 mph66%29.47 "Hg10 mi
1:00 AM86 °FClear.3 mph70%29.47 "Hg10 mi
12:00 AM88 °FClear.1 mph62%29.50 "Hg10 mi
11:00 PM
Aug 1
88 °FClear.3 mph62%29.47 "Hg10 mi
10:00 PM90 °FPassing clouds.6 mph59%29.50 "HgN/A
9:00 PM90 °FPassing clouds.3 mph63%29.47 "HgN/A
8:00 PM91 °FPassing clouds.3 mph56%29.45 "HgN/A
7:00 PM91 °FPassing clouds.3 mph59%29.45 "HgN/A
6:00 PM93 °FPassing clouds.15 mph59%29.42 "HgN/A
5:00 PM97 °FPassing clouds.10 mph56%29.39 "HgN/A
4:00 PM100 °FPassing clouds.8 mph45%29.39 "HgN/A
3:00 PM102 °FPassing clouds.8 mph35%29.39 "HgN/A
2:00 PM100 °FPassing clouds.3 mph42%29.42 "HgN/A
1:00 PM100 °FSunny.3 mph45%29.45 "Hg10 mi
12:00 PM97 °FPassing clouds.6 mph47%29.45 "HgN/A
11:00 AM95 °FPassing clouds.6 mph60%29.47 "HgN/A
10:00 AM93 °FPassing clouds.3 mph63%29.50 "HgN/A
9:00 AM90 °FSunny.6 mph71%29.50 "Hg10 mi
Weather by CustomWeather, © 2014

See weather overviewHow to use our weather pages